2023-059C (56369 NORAD) Tracking and Keplerian Element Data

This shows tracking and keplerian element data for the satellite.

Feedback or suggestion? Click here.




ElementValue
Catalog56369
Name2023-059C
Epoch Orbit56
Epoch Day126.69565337
Epoch Year2023
RAAN11.4255
Inclination8.5984
Eccentricity0.1880624
Argument of Perigee202.6552
Mean Anonmoly147.8418
Mean Motion7.26703295
Decay Rate4.9E-07
L11 56369U 23059C 23126.69565337 .00000049 00000+0 00000+0 0 9997
L22 56369 8.5984 11.4255 1880624 202.6552 147.8418 7.26703295 569



Live tracking and technical data element details for 2023-059C (NORAD 56369). 2023-059C can be tracked NOW for your location showing map with azimuth and elevation plus other details from your city location.







IsCatalogInMostPopularTable: catalog: 56369, numindb: 11
Update: records affected: 1



GetName: 56369 2023-059C

Hit Count: updated at: Thu, 28 Sep 2023 04:21:32 GMT